User: anonymous   Login
Location: Caltech
(34.1382°N, 118.1253°W)
Time: 14:57:35
(UTC-07:00)
Language:

Oscar 19 - Orbit

View from above orbital plane
View from above orbital plane
View from above satellite
View from above satellite

Ground track
Ground track

The orbit data is extracted from the following two-line orbital elements,

1 20442U 90005G   17229.87402507 -.00000025 +00000-0 +71255-5 0  9993
2 20442 098.5772 165.7685 0011230 331.1668 028.8894 14.32866577440393
Epoch (UTC): 17 August 2017 20:58:35
Eccentricity: 0.0011230
inclination: 98.5772°
perigee height: 774 km
apogee height: 790 km
right ascension of ascending node: 165.7685°
argument of perigee: 331.1668°
revolutions per day: 14.32866577
mean anomaly at epoch: 28.8894°
orbit number at epoch: 44039

The dashed part of the orbit path shows where the satellite is in the earth's shadow,  

DLR